timestamp,gas_concentrations,,corrected_fluxes_and_quality_flags,,,,,,,,,,storage_terms,,,turbulence,,,footprint,,
ISOdate,CO2_1_1_1,H2O_1_1_1,Tau_1_1_1,QcTau_1_1_1,H_1_1_1,QcH_1_1_1,LE_1_1_1, QcLE_1_1_1,Fc_1_1_1, QcFc_1_1_1,E_1_1_1, QcE_1_1_1,Sa_1_1_1,Sw_1_1_1,Sc_1_1_1,ustar_1_1_1,MO_length_1_1_1,ZL_1_1_1,Fetchmax_1_1_1,Fetch70_1_1_1,Fetch90_1_1_1
yyyymmddHHMM,[µmol+1mol_a-1],[mmol+1mol_a-1],[kg+1m-1s-2],[#],[W+1m-2],[#],[W+1m-2],[#],[µmol+1s-1m-2],[#],[mmol+1s-1m-2],[#],[W+1m-2],[W+1m-2],[µmol+1s-1m-2],[m+1s-1],[m],[#],[m],[m],[m]
201807290030,392.08586046032411,13.898674525740143,0.12946294317334511,0,12.815156762213658,1,31.058002053284159,1,-3.9322237125417376,1,0.70356028606893728,1,-9999.,-9999.,-9999.,0.34004044428811181,-258.43932621048265,-8.35786113387718410E-002,113.55175120704102,207.60881668003617,311.03583866628162
201807290100,386.66359267340073,13.495439010692358,0.10356229844388182,0,0.83111183444264125,2,168.42129950102949,1,-5.0045143942818910,0,3.8125696613954845,1,-16.164256879191235,-13.494391100273781,-4.1076766849972373,0.30371630647588455,-2839.3789822267363,-7.60729727704772835E-003,123.57542541258252,225.93529001468636,338.49223524226721
201807290130,394.28910751966242,14.256297387934598,7.80664769645669498E-002,1,9.0149972603006585,2,-50.746617942677993,1,-1.7728693171652325,1,-1.1479760126187639,1,-15.585381417124610,25.542762443380894,5.7910713853363029,0.26340567955020505,-170.78967601363308,-0.12647134478008967,213.10168720164040,389.61784950180902,583.71853622149911
201807290200,392.96007549593344,14.013594190253091,1.39936903036467306E-002,1,-1.2825799944754148,1,-0.28828767829683427,2,1.67404684493076272E-003,2,-6.51972939480417735E-003,2,-6.4654457117254180,-8.1588473594938407,-1.0103974589189482,0.11145650287523613,90.946857539194923,0.23750133412461399,73.078597923324367,606.00000000000000,2757.0000000000000
201807290230,392.55472920177630,13.866938695492054,3.49363089869937811E-003,1,-5.8004646720164761,1,6.7809167527080714,1,0.39953744824283471,1,0.15337177965966134,1,2.8326332519861372,-4.9284714631088429,-0.30810387325781002,5.56940258092534710E-002,2.5094773814942739,8.6073698688362885,1413.1010476425843,-9999.,-9999.
201807290300,392.96982106781866,14.248535366919203,1.04399512450044155E-002,1,-4.6371245522900688,1,2.6277946337526399,1,0.22748207572935564,1,5.94094501627537921E-002,1,-10.223039164325639,12.849815969518941,0.31600988283018372,9.62073144885499942E-002,16.181603688357079,1.3348491543852075,538.27604638743333,5342.0000000000000,-9999.
201807290330,394.23237823649265,14.145494773898038,2.08074844826699546E-003,1,4.53791542639831874E-002,2,-2.9883970441182122,2,0.11834698141932107,1,-6.75232599840899506E-002,2,-13.227829107934232,-3.4789080747296253,0.96316514809888698,4.29055533465272851E-002,-146.66415419466136,-0.14727525017006679,501.82514677310087,1783.0000000000000,4377.0000000000000
201807290400,393.51671790874616,13.722048927135676,2.93401646786522335E-003,1,-2.1027506436355372,1,2.0628958501983150,1,0.13882975866195305,1,4.66117725597069363E-002,1,0.17067391207625596,-14.292860004346259,-0.54581632597882301,5.09512803976933382E-002,5.2992628991526018,4.0760385757524933,978.64656268010094,8263.0000000000000,-9999.
201807290430,393.52198417849303,13.656468209473616,3.30204707571320893E-003,1,-6.3540581075895366,1,3.8906761065279518,1,0.98895913848826544,1,8.79167759804257293E-002,1,1.5059498320011886,-2.2128320443992573,4.01533757859120349E-003,5.40592920726479451E-002,2.0944952225372462,10.312747323354609,232.21503148079469,1507.0000000000000,5683.0000000000000
201807290500,396.48292038808813,13.387192873130237,1.72363245469432103E-002,1,4.1252545107777747,2,-20.623322543201734,2,-1.5945694211374239,1,-0.46583544302594970,2,-9.1900998160131184,-9.1033576661040740,2.2610385911910349,0.12340957338319000,-38.381698935368753,-0.56276820982761633,299.55442702453576,926.00000000000000,2070.0000000000000
201807290530,397.17890909260512,12.985978809456560,3.46406878617697925E-003,1,-17.277169047141072,1,21.186289413435283,0,3.2852395606679190,0,0.47852469731983277,0,-1.3002296833130571,-13.566486101661628,0.53154847232094060,5.53166390097775060E-002,0.82522984041801584,26.174526104216778,2664.5866459570884,-9999.,-9999.
201807290600,398.40284049513912,13.138511044966494,7.84085971808395378E-003,1,6.0141647816897841,2,-9.3812726161426401,2,-1.4150563814203447,2,-0.21176385582234722,2,-13.835193151324512,5.1720687176505891,0.93680631195519848,8.31344324005587748E-002,-8.0477231579656419,-2.6839889464413678,252.90265924934207,722.00000000000000,1531.0000000000000
201807290630,403.30059208927184,13.700227917483339,1.13374328643816458E-002,1,-2.5501547387276511,1,-4.4191001076810235,2,-2.6120077764595875,2,-9.97286226941433152E-002,2,-5.5607570129064241,19.069544729831346,3.7523694505528056,9.99297412171092914E-002,32.968147982422700,0.65517784048762029,434.86513860378335,4598.0000000000000,-9999.
201807290700,409.52545022002084,13.934444847030614,7.27135205696686267E-003,1,-2.6799160254846246,0,-1.6046917866233061,1,-0.64334985693569879,2,-3.61958360142196345E-002,1,-11.725693765686188,7.9706027501984638,4.7782549852776928,7.99555847688821208E-002,16.071227187695104,1.3440168412613811,893.93892319437452,9624.0000000000000,-9999.
201807290730,406.05043900389347,11.566980369965744,1.09769348218057851E-003,2,-5.2745004758873346,1,19.972665253649353,1,1.2611442181238282,1,0.45080164594143407,1,15.082429742536316,-80.324899062544887,-2.6611686447366139,3.10883923956482670E-002,0.47979795560791805,45.018949638149600,6472.8533376882369,-9999.,-9999.
201807290800,409.63500317898774,11.635881828897526,1.83988320460956242E-003,1,2.5265634588879058,2,-6.2818995374947955,2,-0.27326854675916229,2,-0.14169594146484921,2,-15.146786337152999,2.3446160712463398,2.7513516695228293,4.02033047102459407E-002,-2.1661354485848721,-9.9716756004852787,277.29140238321673,769.00000000000000,1603.0000000000000
201807290830,406.46983048654897,10.871865892035339,3.45364047393849696E-002,0,-25.073751512794921,0,40.394048920016147,0,4.5879535172951558,0,0.91143666847512828,0,7.6270205623853133,-25.959509785988637,-2.4266133879356664,0.17425910128462271,17.772470020946965,1.2153628603419693,535.24244635887192,5401.0000000000000,-9999.
201807290900,412.71130509955191,11.143366565188821,3.40035632883749495E-002,0,-11.975846981360734,1,8.6167028336662526,2,2.1028688780091667,2,0.19437814168117751,2,-5.4994902688473761,9.2347681988097641,4.7890415675552722,0.17284721989829083,36.313856154037722,0.59481427442946755,431.34815508022285,4578.0000000000000,-9999.
201807290930,417.05406270501811,11.438451820245660,6.27317230670855069E-002,0,-45.000820171749403,0,57.588713250907261,0,8.1315008446883503,0,1.2991095552035887,0,0.11192562332736947,10.036035527473784,3.3318747922709964,0.23479415580486804,24.223251928720714,0.89170521214740750,114.58327900083076,209.49477847599985,313.86135310387021
201807291000,418.17495850332159,11.157229073136541,1.75954581517224935E-002,0,-20.340759510211821,0,38.683173861289312,0,6.2739431783655633,0,0.87246850304015022,0,-4.3227245074916203,-9.5721392836289265,0.86050116384085307,0.12430517384309957,7.9515276358076985,2.7164591496519299,845.61648026754369,7689.0000000000000,-9999.
201807291030,413.66561637459921,10.494429405506997,1.65598879225987636E-002,0,-16.120892338436786,0,15.061246421413212,1,2.8494032214330356,0,0.33978618635781016,1,6.2648178639411141,-22.533023897210089,-3.4585589875212559,0.12063270779013363,9.1689882192391554,2.3557670141485221,945.43646455797102,9047.0000000000000,-9999.
201807291100,413.13310523662005,10.606150325235102,1.63668455346814845E-002,0,-21.925096674405818,0,17.865425385509521,0,4.2543300593857456,0,0.40285211801482929,0,-11.388421534227289,3.8074162218722543,-0.40921998899887935,0.11981329450813959,6.6062169997917728,3.2696473640936756,1022.9485508680663,9148.0000000000000,-9999.
201807291130,411.05810168067086,10.648680070504261,9.28893349868238280E-003,0,-9.5459854094084982,0,4.1499771712980555,0,1.4226838885471744,0,9.35634455307113033E-002,0,-3.8513198238110906,1.4507171287368845,-1.5957663450477790,9.02293429748801529E-002,6.4811149022684367,3.3327599225929241,1175.8103314946750,-9999.,-9999.
201807291200,409.78095717440272,11.279818480569755,1.40473173388625545E-002,0,-11.934481536999677,0,7.8436201704747885,0,2.5294111030596200,0,0.17684370239313565,0,0.67306220032124542,21.526130812359426,-0.98209714215871535,0.11097665426783193,9.6465319341794142,2.2391466847756218,503.05139703134051,4436.0000000000000,-9999.
201807291230,407.19956116753383,12.183586755278391,1.90574208864668394E-002,1,-8.0142210170300423,0,28.308512213971152,0,2.7196770187128911,0,0.63849627575258860,0,9.0171046020293257,30.775644229272679,-1.9826498339248686,0.12936090471399175,22.759098042321561,0.94907100271872968,263.73988867077981,2486.0000000000000,-9999.
201807291300,403.30714861430260,12.850575432629883,2.55939239295172732E-002,0,9.2308337182620086,1,54.878648832438110,0,-0.12161467310102519,2,1.2386609928678174,0,16.443566361254611,22.643071309783462,-2.9825297786536860,0.15010915341984538,-30.881420253856142,-0.69944969572125892,89.093164544641240,286.00000000000000,657.00000000000000
201807291330,401.50004665633281,12.833746226016030,7.81785917789316470E-002,1,37.885372510291198,0,101.57482677696034,0,-7.0518737053344527,0,2.2933266360199700,0,6.9769317137191464,-0.57053516725148246,-1.3831881450704981,0.26249131133419329,-40.233791881362556,-0.53686214969973389,108.82550290821959,198.96772743020776,298.08991235741581
201807291400,401.29146580292127,12.884817975817896,7.53799801965143318E-002,1,47.690304899587062,0,153.16754124238403,0,-10.183230961465330,0,3.4610808149891361,0,19.416094699661766,1.7249936554383192,-0.15919381979518504,0.25812296991640982,-30.396042679867485,-0.71061882059754267,97.933124960988565,179.05298659690095,268.25400164821104
201807291430,401.09147051824527,12.601628391782725,6.83371029905810723E-002,1,44.764223950534465,0,217.21959745359320,0,-11.500419741508679,0,4.9117038196752487,0,15.275365529062366,-9.5372396282742589,-0.15229945227353028,0.24603118012942540,-28.043170642675726,-0.77024100716804855,87.170381925918790,159.37525972795959,238.77318104722474
201807291500,400.15199378525801,12.351179655361557,8.93160571928599406E-002,1,92.412188360472669,0,169.70359275212093,0,-13.660498007521618,0,3.8394738572266380,0,13.084198124386708,-8.4120152076264088,-0.71391730835052547,0.28155570332856855,-20.356790902040224,-1.0610709764590243,87.591592070457395,160.14536621026159,239.92694088948764
201807291530,398.41495733337831,12.481538960674335,0.24429729853966031,1,136.74238701166985,0,243.82733980575810,0,-15.302367869649173,0,5.5195632407084885,0,12.741793770337081,4.3674759222654274,-1.3174062741115105,0.46611726294264094,-62.422935187868262,-0.34602666367726176,116.09834035106657,212.26479382826517,318.01134086444864
201807291600,398.63773115709870,12.115676911771590,0.12933887161556704,1,81.700468548664702,0,123.46802888944896,0,-7.5371677109004089,0,2.7956436132829747,0,5.5286191961574920,-12.244531084783976,0.16881702681431440,0.33927320507788500,-40.287426859285794,-0.53614742076835931,94.082882220530593,172.01351489540409,257.70759027967506
201807291630,397.69846323836185,12.232618175816320,0.28441277322790914,1,194.30638536585607,1,285.13858703860564,1,-19.599042238700832,1,6.4593065562742478,1,10.648321393786574,3.9051124386973290,-0.71053446946685417,0.50355560629403717,-55.383777895711312,-0.39000589740687613,122.19111144234837,223.40432257280216,334.70038481167228
201807291700,398.22152298255094,12.336815130666078,0.26047552762111775,0,152.70934405197687,0,234.71577730032357,1,-14.732151551475525,0,5.3193955021942418,1,9.9689115846598320,3.4719505723419859,0.39499336670184049,0.48232916610344956,-61.921313043913592,-0.34882981219538467,106.91227955902950,195.46974495659759,292.84929719608527
201807291730,398.19715103275252,12.321735299845423,0.40454628819288063,1,219.03698442180195,0,229.68499668621402,0,-16.883359920175675,0,5.2069680765686304,0,6.9261835962559193,-0.50168890475187555,-1.83814848072546798E-002,0.60147422698846520,-83.704811696142073,-0.25804968152142127,113.93326747356967,208.30635009362288,312.08087082706442
201807291800,398.16164578690484,12.082171545900392,0.24899668241299694,0,144.84147623374398,0,262.63186028351447,0,-14.538376075181599,0,5.9553835313285868,0,5.7529894422718852,-7.9591298237395209,-2.67484935957494098E-002,0.47211922548646662,-61.205981943989137,-0.35290668189535151,102.34226826486163,187.11430678051283,280.33132824812827
201807291830,397.86527554223511,12.030754248663289,0.51206025625197282,1,275.64797744773699,0,438.49721475544692,0,-24.005376077061058,0,9.9479537089579555,0,10.673586983983370,-1.7044280313637452,-0.22287991794168394,0.67763593897643404,-95.088450848808847,-0.22715692397117837,124.57909906862578,227.77032556322791,341.24145288124021
201807291900,398.04842495574610,12.053560718954706,0.38421649033189842,1,248.53937410073408,0,235.98240817682859,0,-17.861502024813326,0,5.3549462984093195,0,5.6571621991083427,0.75512170773414911,0.13760680236174472,0.58725505370155140,-68.638237648031108,-0.31469339452977052,120.71644953337983,220.70817028391437,330.66105737964580
201807291930,397.50800324529138,12.085209202558039,0.18062416781699467,0,134.30924357267781,0,148.31712958480426,0,-11.236764640313831,0,3.3655028912394096,0,-0.87715683866952465,1.0480092435616144,-0.40607256690837873,0.40263456637494821,-40.934955688434421,-0.52766638284410716,103.75028408044189,189.68860875500553,284.18810170515655
201807292000,397.49719034432337,11.923535145357031,0.23059434177875232,1,122.66609429725422,0,157.19257986103841,0,-10.818544594877480,0,3.5674696487162234,0,3.6231631264099038,-5.3493747483932133,-8.11957236747898325E-003,0.45506567710711954,-64.703546712716076,-0.33383023184036664,112.60738923265139,205.88222180204806,308.44908491227511
201807292030,397.69938265042100,12.119441003661466,0.28207948468895794,1,138.32109414703720,1,156.89331583814254,0,-12.101985095175731,0,3.5602430900465940,0,-2.7621277316039037,6.4847928840182636,0.15187578050648995,0.50325162323005690,-77.602079481913961,-0.27834305658051500,121.64188323279473,222.40015823838496,333.19596365601592
201807292100,397.62485228393194,12.121281088141098,0.18713805131401731,1,18.039356851117251,0,149.34349644515274,0,-10.836789188133448,0,3.3876281160313053,0,-8.6482823864521130,6.10122349841450071E-002,-5.60559662009639595E-002,0.40963616578612366,-320.89741990589903,-6.73112298825402078E-002,117.80358624760534,215.38252718742231,322.68227356186782
201807292130,396.26215006151290,12.491809102915123,4.36448726073974183E-002,0,20.358154865569251,0,96.713752186819590,0,-9.1592254696281490,1,2.1937421821778105,0,-0.62926116958664280,12.285865503085557,-1.0249036140494829,0.19784163165490504,-32.033098544009235,-0.67430254898146869,55.244308018678190,184.00000000000000,431.00000000000000
201807292200,397.82747376744987,12.059109513619472,9.80964934310699643E-002,0,4.8776926258702291,0,127.33255351026754,0,-7.7788011920904285,0,2.8889294934625975,0,5.2194219271406039,-14.331497531618886,1.1762692582553529,0.29670977556619410,-450.93620159614596,-4.79003458217460848E-002,105.37098836884779,192.65177309133281,288.62746184021285
201807292230,395.72932268916281,12.939792178899346,9.16793386126715376E-002,1,-8.1631033277808562,2,99.587026912284145,1,-7.0133209991563703,0,2.2583437498053396,1,-10.979998771250601,29.238331255432580,-1.5796365409891842,0.28661874497686535,242.94677710022927,8.89083619787587459E-002,98.098882439465214,179.35604413319257,268.70803706188940
201807292300,394.47336724363231,13.796524512257216,6.46719191992076170E-002,1,42.867839919363099,0,117.94253201352582,0,-11.406194246149333,0,2.6736799534723645,0,-7.7604055188142249,28.488241068688399,-0.94674644737616509,0.24061789016894622,-27.376533411951044,-0.78899690019082780,80.509019108437215,147.19616396489937,220.52667627234027
201807292330,395.46195477388852,13.485926418054344,6.53179574913388683E-002,1,35.043657878432029,0,133.04416899269145,0,-8.2081916922824814,0,3.0188777246169751,0,21.410603041664196,-10.283279122643666,0.74267301364310878,0.24221396001983686,-34.156360377316616,-0.63238587956650827,92.984892813189305,170.00604007302366,254.70002718594168
201807300000,394.90718693178513,13.245003416175624,5.15944189123615157E-002,1,17.835827230435722,0,64.637994476892644,0,-5.4459860981126527,0,1.4663164958760424,0,-5.7283898765808337,-7.9855109556903150,-0.41713398070265650,0.21516590986812567,-47.042383714891500,-0.45916040587803830,103.94133960079229,190.03791918023902,284.71143237484972
